Regional Weather Roundup
Issued by NWS Charleston, SC

Current Version | Previous Version | Graphics & Text | Print | Product List | Glossary Off
Versions: 1 2 3 4 5 6 7 8 9 10 11 12 13 14 15 16 17 18 19 20 21 22 23 24 25 26 27 28 29 30 31 32 33 34 35 36 37 38 39 40 41 42 43 44 45 46 47 48 49 50

000
ASUS42 KCHS 011627
RWRCHS

REGIONAL WEATHER ROUNDUP
NATIONAL WEATHER SERVICE CHARLESTON SC
1100 AM EST SUN MAR 01 2015

NOTE: "FAIR" INDICATES FEW OR NO CLOUDS BELOW 12,000 FEET WITH NO
SIGNIFICANT WEATHER AND/OR OBSTRUCTIONS TO VISIBILITY.

NOT ALL STATIONS ARE QUALITY CONTROLLED BY THE NATIONAL
WEATHER SERVICE. USE DATA WITH CAUTION...ESPECIALLY
DEWPOINT OBSERVATIONS.

SCZ027-030-031-034>040-042>050-011700-
...SOUTHEAST SOUTH CAROLINA...

CITY           SKY/WX    TMP DP  RH WIND       PRES   REMARKS
N CHARLESTON   LGT RAIN  41  39  93 N9        30.50S FOG
WATERFRONT PRK   N/A     43 N/A N/A NW8         N/A
MOUNT PLEASANT LGT RAIN  43  41  93 NW7       30.49S
PINOPOLIS        N/A     39  37  93 N9        30.45  WCI  33
MONCKS CORNER  CLOUDY    41  37  87 N9        30.52S FOG
SUMMERVILLE    CLOUDY    39  39 100 N5        30.52F WCI  36
BEAUFORT MCAS  CLOUDY    42  40  92 N10       30.49F FOG
BEAUFORT ARPT  CLOUDY    43  43 100 N8        30.48F FOG
HILTON HEAD IS LGT RAIN  43  43 100 N8        30.50
WALTERBORO     RAIN      39  39 100 N5        30.52F WCI  36
ALLENDALE      CLOUDY    39  37  93 VRB6      30.50F WCI  35

...SOUTHERN MIDLANDS AND PEE DEE...

CITY           SKY/WX    TMP DP  RH WIND       PRES   REMARKS
GEORGETOWN     NOT AVBL
KINGSTREE      NOT AVBL
ORANGEBURG     LGT RAIN  37  34  89 NE6       30.52F FOG     WCI  32
BARNWELL       CLOUDY    39  37  93 CALM      30.52F
AIKEN          CLOUDY    36  36 100 NE6       30.55S WCI  31
MANNING        LGT RAIN N/A N/A N/A N8        30.52F
COLUMBIA       CLOUDY    37  35  92 N5        30.53F FOG     WCI  33
SUMTER         LGT RAIN  36  34  93 N7        30.52F WCI  30
FLORENCE       RAIN      36  33  89 N8        30.53F FOG     WCI  30
MYRTLE BEACH   CLOUDY    48  39  71 NW7       30.49F
N MYRTLE BEACH CLOUDY    51  41  68 VRB3      30.47F

$$

GAZ063-065-086>088-099>101-113>116-118-119-134>141-150-011700-
...SOUTHEAST GEORGIA...

CITY           SKY/WX    TMP DP  RH WIND       PRES   REMARKS
SAVANNAH ARPT  LGT RAIN  43  41  93 N8        30.50F VSB 1
HUNTER AAF     RAIN      44  44 100 NW2       30.46F FOG
FORT STEWART   CLOUDY    44  42  93 N5        30.47F
STATESBORO     CLOUDY    40  40 100 N7        30.50F FOG     WCI  36
SYLVANIA       CLOUDY    39  39 100 N7        30.51F FOG     WCI  34
CLAXTON        CLOUDY    43  41  93 NE5       30.49F

...CSRA...CENTRAL AND FAR SOUTHEAST GEORGIA...

CITY           SKY/WX    TMP DP  RH WIND       PRES   REMARKS
THOMSON        CLOUDY    39  39 100 N5        30.56F WCI  36
AUGUSTA-BUSH   CLOUDY    38  35  89 NE6       30.53F WCI  33
AUGUSTA-DANIEL CLOUDY    39  36  89 N6        30.52F WCI  35
SWAINSBORO     CLOUDY    43  41  93 NE6       30.50F FOG
VIDALIA        CLOUDY    41  41 100 NE7       30.50S FOG
EASTMAN        CLOUDY    43  43 100 NE6       30.52S FOG
HAZLEHURST     CLOUDY    45  45 100 N5        30.48S FOG
ALMA           CLOUDY    45  43  93 N6        30.48S FOG
WAYCROSS       CLOUDY    50  49  95 NE7       30.47S FOG
JESUP          CLOUDY    48  46  93 E7        30.47F FOG
BAXLEY         CLOUDY    46  45  93 NE7       30.47F FOG
BRUNSWICK      CLOUDY    50  46  87 N5        30.47F
SAINT SIMONS   CLOUDY    50  48  93 N8        30.46F

$$

SCZ027-028-034-036>038-045-046-048>050-GAZ119-141-011700-
...LAKE AND SUPPLEMENTAL COASTAL OBSERVATIONS...

STATION/POSITION TIME  TEMP    WIND        PRES    WAVE   SWELL
                       AIR SEA DIR/SP/G            HT/PER HT/PER/DIR
                 (UTC) (F)     (DEG/KT/KT) (MB)    (FT/S) (FT/S/D)
UPR LAKE MARION  NOT AVBL
WINYAH BAY       1500   43      40/  7     1031.0
LAKE MURRAY      1600   36      CALM  /  8 1033.5F
ACE BASIN NERRS  NOT AVBL
FORT PULASKI     1600   43 48  350/  9/ 12 1032.6F
SAPELO ISLAND    1600   47      10/ 10     1031.0F

$$

ANZ835-935-AMZ111-154-330-350-352-354-370-450-454-472-011700-
...C-MAN AND BUOY OBSERVATIONS...

STATION/POSITION TIME  TEMP    WIND        PRES    WAVE   SWELL
                       AIR SEA DIR/SP/G            HT/PER HT/PER/DIR
                 (UTC) (F)     (DEG/KT/KT) (MB)    (FT/S) (FT/S/D)
BUOY 41004       1550   70 68  140/ 17/ 21 1030.1F   8/ 8   3/ 9
BUOY 41008       1550   48 52   20/ 17/ 19 1031.1S   6/ 8   3/100/ 8
FOLLY BEACH CMAN 1600   43     340/  9/ 12 1032.7S
CAPERS NEARSHORE NOT AVBL
FRIPP NEARSHORE  1500   43      10/ 16/ 17 1030.8F


STATION/POSITION TIME  TEMP    WIND        PRES    WAVE   SWELL
                       AIR SEA DIR/SP/G            HT/PER HT/PER/DIR
                 (UTC) (F)     (DEG/KT/KT) (MB)    (FT/S) (FT/S/D)
5E ST. MARYS GA  1521      52                N/A     6/ 9   2/ 90/11
FRYING PAN BUOY  1550   65 61  130/ 19/ 21 1030.9F   6/ 6
BUOY 41025       NOT AVBL
CAPE LOOKOUT NC  1600   55      90/  6/  8 1032.7F
BUOY 41002       1550   68 72  100/ 17/ 21 1033.1F   9/ 9   5/ 70/ 9
BUOY 41010       1520   71 74   90/ 19/ 25 1029.2F
ST AUGUSTINE FL  1600   52     360/ 16/ 18 1030.6F


$$


USA.gov is the U.S. government's official web portal to all federal, state and local government web resources and services.